Regional Weather Roundup
Issued by NWS Spokane, WA

Home | Current Version | Previous Version | Text Only | Print | Product List | Glossary On
Versions: 1 2 3 4 5 6 7 8 9 10 11 12 13 14 15 16 17 18 19 20 21 22 23 24 25 26 27 28 29 30 31 32 33 34 35 36 37 38 39 40 41 42 43 44 45 46 47 48 49 50
000
NZUS01 KOTX 012210
RWROTX
EASTERN WASHINGTON/NORTHERN IDAHO ROUNDUP
NATIONAL WEATHER SERVICE, SPOKANE WA
300 PM PDT WED OCT 01 2014

Note: "fair" indicated few or no clouds below 12,000 feet with no
significant weather and/or obstructions to visibility.

...NORTHEAST WASHINGTON AND NORTHERN IDAHO PANHANDLE...

CITY           SKY/WX    TMP DP  RH WIND       PRES   REMARKS
SPOKANE INTL   PTSUNNY   62  33  33 SW20G28   30.06F
SPOKANE DOWNTO PTSUNNY   63  34  33 W13G22    30.06F
COEUR D ALENE  PTSUNNY   61  39  44 SW16      30.06F
DEER PARK      MOSUNNY   63  35  35 SW20      30.06F
SANDPOINT      CLOUDY    61  41  48 S13       30.04S

...SOUTHEAST WASHINGTON AND SOUTHERN IDAHO PANHANDLE...

CITY           SKY/WX    TMP DP  RH WIND       PRES   REMARKS
WALLA WALLA    MOSUNNY   66  38  35 W9G20     30.11F
PULLMAN/MOSCOW MOSUNNY   60  37  42 SW15      30.13F
LEWISTON       MOSUNNY   67  37  33 VRB5      30.10F
LOWELL           N/A     56  50  80 N3        30.14F

...COLUMBIA BASIN...

CITY           SKY/WX    TMP DP  RH WIND       PRES   REMARKS
EPHRATA        SUNNY     68  35  29 SW8       30.04F
MOSES LAKE     SUNNY     70  36  28 SW12G20   30.05F
TRI CITIES     SUNNY     69  42  37 S9        30.09F
HERMISTON      SUNNY     70  38  31 W10G25    30.09F
PENDLETON      SUNNY     68  35  29 SW14      30.09F

...EAST SLOPES CASCADES...

CITY           SKY/WX    TMP DP  RH WIND       PRES   REMARKS
THE DALLES     SUNNY     70  41  34 NW16      30.11F
YAKIMA         SUNNY     70  38  31 S6        30.08F
ELLENSBURG     SUNNY     66  39  37 NW28      30.08S
WENATCHEE      SUNNY     69  34  27 S7        30.04F
OMAK           SUNNY     70  33  25 S14       29.99F

...SOUTHERN BRITISH COLUMBIA...

CITY           SKY/WX    TMP DP  RH WIND       PRES   REMARKS
PENTICTON      PTSUNNY   64  41  42 S6        29.98F
CASTLEGAR      PTSUNNY   63  41  45 VRB2      29.97F
CRANBROOK      MOSUNNY   61  28  29 NW8       29.92F

...WESTERN MONTANA...

CITY           SKY/WX    TMP DP  RH WIND       PRES   REMARKS
MISSOULA       CLOUDY    57  32  38 W13G23    30.09R

...NEIGHBORING CITIES...

CITY           SKY/WX    TMP DP  RH WIND       PRES   REMARKS
SEATTLE        MOSUNNY   63  49  60 W5        30.20F



USA.gov is the U.S. government's official web portal to all federal, state and local government web resources and services.